Location: Antioch Church
(34.9543°N, 88.5145°W)
Time: 02:09:28
(UTC+00:00)

Centaur D-1AR AC-36 - Pass Details

Date: 11 December 2019
Orbit: 558 x 36345 km, 21.9° (Epoch: 22 January)

Event Time Altitude Azimuth Distance (km) Brightness Sun altitude
Rises 01:08:56 0° 259° (W) 9,931 8.9 -29.2°
Reaches altitude 10° 01:19:51 10° 251° (WSW) 5,544 7.2 -31.4°
Maximum altitude 01:28:56 26° 198° (SSW) 1,941 4.2 -33.2°
Enters shadow 01:29:38 25° 186° (S) 1,823 4.0 -33.4°
